Location: Newark
(41.9364°N, 2.8061°E)
Time: 03:12:33
(UTC+00:00)

A-11 Canister half - Pass Details

Date: 18 February 2020
Orbit: 1517 x 1683 km, 47.2° (Epoch: 04 April)

Event Time Altitude Azimuth Distance (km) Brightness Sun altitude
Rises 21:26:37 0° 292° (WNW) 4,814 12.4 -44.5°
Reaches altitude 10° 21:29:46 10° 293° (WNW) 3,805 11.6 -45.0°
Enters shadow 21:36:12 48° 301° (WNW) 1,965 9.6 -46.0°
